sat.trackr.live / text

‹ back to catalog

STARLINK-3122

NORAD 49445 · 2021-104AP

PAYLOAD ACTIVE UNKNOWN

§ Identity

Operator
Country
US
Launch date
2021-11-13
Launch site
AFETR
Launch vehicle
Mass (kg)
RCS (m²)

Purposes: comms

External: N2YO · Heavens-Above · Gunter

§ Orbital elements

Epoch: 2026-09-19T23:23:02.211360Z

Period
93.90 min
Inclination
53.1598°
Eccentricity
0.0001165
Mean motion
15.33548786 rev/d
Perigee alt
464.4 km
Apogee alt
466.0 km
Semi-major
6,843.4 km
B*
6.8740e-5
RAAN
54.3325°
Arg perigee
83.6592°
Mean anomaly
276.4542°
Rev number
26,827

§ Raw data

STARLINK-31221 49445U 21104AP  26262.97433115  .00001889  00000+0  68740-4 0  99992 49445  53.1598  54.3325 0001165  83.6592 276.4542 15.33548786268272

JSON: /api/v1/satellites/49445 · /tle

For live sub-satellite position, see the globe view (requires WebGL).

§ Visibility from observer

Set your observer location to see the next 7 days of passes ≥ 10°. The values pass through the URL so the page stays shareable.

No JS? Fill the form by hand. The geolocation button needs JavaScript.